TimeCST,TemperatureF,Dew PointF,Humidity,Sea Level PressureIn,VisibilityMPH,Wind Direction,Wind SpeedMPH,Gust SpeedMPH,PrecipitationIn,Events,Conditions,WindDirDegrees,DateUTC
12:53 AM,37.0,21.0,52,30.25,10.0,South,8.1,-,N/A,,Clear,180,2012-12-05 06:53:00
1:53 AM,37.9,21.0,51,30.24,10.0,South,9.2,-,N/A,,Clear,170,2012-12-05 07:53:00
2:53 AM,36.0,19.9,52,30.23,10.0,South,8.1,-,N/A,,Clear,170,2012-12-05 08:53:00
3:53 AM,37.0,19.9,50,30.22,10.0,South,11.5,-,N/A,,Clear,170,2012-12-05 09:53:00
4:53 AM,36.0,19.9,52,30.20,10.0,South,11.5,-,N/A,,Clear,170,2012-12-05 10:53:00
5:53 AM,35.1,19.9,54,30.19,10.0,South,10.4,-,N/A,,Clear,170,2012-12-05 11:53:00
6:53 AM,36.0,19.9,52,30.19,10.0,South,12.7,-,N/A,,Clear,170,2012-12-05 12:53:00
8:53 AM,39.0,19.9,46,30.16,10.0,South,13.8,-,N/A,,Clear,180,2012-12-05 14:53:00
9:53 AM,44.1,21.0,40,30.14,10.0,South,18.4,-,N/A,,Clear,180,2012-12-05 15:53:00
10:53 AM,48.0,19.9,33,30.11,10.0,South,23.0,29.9,N/A,,Clear,190,2012-12-05 16:53:00
11:53 AM,54.0,19.9,26,30.05,10.0,South,20.7,31.1,N/A,,Clear,190,2012-12-05 17:53:00
12:53 PM,57.0,18.0,22,30.00,10.0,South,19.6,41.4,N/A,,Clear,190,2012-12-05 18:53:00
1:53 PM,57.9,21.0,24,29.96,10.0,South,28.8,38.0,N/A,,Clear,190,2012-12-05 19:53:00
2:53 PM,61.0,19.9,21,29.92,10.0,SSW,26.5,41.4,N/A,,Clear,200,2012-12-05 20:53:00
3:53 PM,59.0,19.9,22,29.90,10.0,South,20.7,27.6,N/A,,Clear,190,2012-12-05 21:53:00
4:53 PM,57.0,19.9,24,29.88,10.0,South,17.3,25.3,N/A,,Clear,180,2012-12-05 22:53:00
5:53 PM,55.0,21.0,27,29.88,10.0,South,17.3,26.5,N/A,,Clear,180,2012-12-05 23:53:00
6:53 PM,53.1,21.0,29,29.86,10.0,South,19.6,27.6,N/A,,Clear,170,2012-12-06 00:53:00
7:53 PM,53.1,21.9,30,29.87,10.0,South,23.0,27.6,N/A,,Clear,180,2012-12-06 01:53:00
8:53 PM,52.0,21.9,31,29.86,10.0,South,20.7,28.8,N/A,,Clear,180,2012-12-06 02:53:00
9:53 PM,52.0,21.9,31,29.87,10.0,SSW,17.3,27.6,N/A,,Clear,200,2012-12-06 03:53:00
10:53 PM,51.1,21.0,31,29.85,10.0,South,23.0,32.2,N/A,,Partly Cloudy,190,2012-12-06 04:53:00
11:53 PM,50.0,21.0,32,29.84,10.0,South,19.6,28.8,N/A,,Clear,190,2012-12-06 05:53:00